Location: Unspecified
(17.6330°N, 0.0000°E)
Time: 09:10:32
(UTC+00:00)

Vanguard 3 - Visible Passes

Search period start: 16 June 2019 00:00
Search period end: 26 June 2019 00:00
Orbit: 508 x 3263 km, 33.3° (Epoch: 16 June)

Date Brightness Start Highest point End Pass type
(mag) Time Alt. Az. Time Alt. Az. Time Alt. Az.
16 Jun 6.4 19:36:22 10° WNW 19:40:07 88° SW 19:43:00 24° ESE visible
17 Jun 8.2 20:34:39 10° W 20:37:47 26° SW 20:37:47 26° SW visible
18 Jun 6.6 19:20:51 10° WNW 19:24:28 60° SSW 19:28:02 15° SE visible
19 Jun 8.6 20:19:49 10° WSW 20:22:35 17° SSW 20:22:52 17° SSW visible
20 Jun 7.2 19:05:23 10° WNW 19:08:49 39° SSW 19:12:49 10° SE visible
21 Jun 9.0 20:05:59 10° SW 20:06:55 11° SSW 20:07:54 10° SSW visible
24 Jun 11.3 04:57:19 10° S 05:09:10 19° SE 05:20:38 10° ESE visible
